COSMOS 1570

导读

COSMOS 1570是苏联(CIS)于1984年6月8日发射的人造卫星,隶属于苏联"宇宙"(Cosmos)卫星系列。该系列包含大量军用、科学试验卫星,这种命名方式可隐藏卫星真实用途,提升任务保密性。作为冷战时期苏联航天活动产物,它完成设计任务后已退役,最终脱离轨道再入大气层,是苏联航天探索历程中的一枚普通卫星。

Basic Information
目录编号:
15031
目录名称:
COSMOS 1570
国际标识:
1984-056A
轨道中心:
EARTH
卫星名称:
COSMOS 1570
卫星全名:
--
卫星状态:
在轨 (已飞行15435 天)
发射日期:
1984-06-08 UTC
国别 :
俄罗斯(独联体) (CIS)
星等 :
--
Orbit Information
数据来源 国际轨道数据 AOE轨道数据
星历时间 2026-09-11T01:43:55+0800
11小时前
查看轨道信息
2026-09-09T23:00:00+0800
1天前
查看轨道信息
半长轴 7160.886km 7160.887km
偏心率 0.0012842 0.0012788
轨道倾角 74.067° 74.067°
近地点辐角 185.678° 187.951°
升交点赤经 134.623° 136.653°
平近点角 231.511° 246.747°
近地点 773.552km 773.592km
远地点 791.946km 791.908km
周期 100.510分钟 100.510分钟
每日圈数 14.326915 14.32691
Detailed Information
使用方式:
暂无
2D Orbit Map
3D Orbit Map
Orbit Altitude Analysis Chart
Orbit Inclination Analysis Chart
Orbit Comprehensive Analysis Chart
View Comprehensive Chart
Conjunction Data List
Event ID Objects TCA Miss Dist (km) Collision Risk Probability Collision Risk Index (CRI) Action
CDM_260913-171701-503106-130321
2026-09-13T
17:17:58+0000
0.356 km
远距离
3.916024E-4 高风险 0.87
CDM_260913-114101-503104-033623
CBERS-4 (40336)
2026-09-13T
11:41:31+0000
0.970 km
远距离
3.035011E-5 中风险 0.65
CDM_260912-071501-503105-445025
2026-09-12T
07:15:59+0000
2.210 km
极远距离
2.259831E-6 低风险 0.42
CDM_260913-115801-503104-296222
2026-09-13T
11:58:09+0000
2.625 km
极远距离
1.554326E-6 低风险 0.39
CDM_260913-160901-503103-060821
2026-09-13T
16:09:03+0000
2.927 km
极远距离
1.379761E-6 低风险 0.38
CDM_260909-145401-503103-008929
2026-09-09T
14:54:26+0000
2.682 km
极远距离
8.587875E-7 极低风险 0.34
Miss Distance Evolution Trend with All Objects
Collision Probability Evolution Trend with All Objects